Wind_Speed
49 50 50 50 50 50 51 50 49 48 47 48 48 47 46 46 46 45 45 44 43 42 41 41 40 40 39 38 37 36 36 36 35 35 35 35 34 34 34 34 34 34 34 34
48 49 47 49 50 51 51 51 50 49 48 49 49 49 47 47 46 46 45 44 44 43 43 42 41 40 40 39 38 38 37 37 36 36 36 36 35 35 35 35 35 35 35 35
47 47 47 49 50 51 51 51 50 50 50 50 51 51 49 47 47 46 45 45 44 44 43 43 42 41 41 40 39 39 39 38 38 38 37 37 36 36 36 36 36 35 36 36
44 46 47 48 50 50 50 50 50 50 51 51 52 53 50 48 47 46 44 45 44 44 44 43 43 42 41 40 40 40 40 40 39 39 38 37 37 37 37 36 36 36 36 36
41 44 47 48 48 48 48 48 49 50 51 52 52 53 50 48 47 45 44 44 44 43 43 43 43 42 42 41 41 41 41 40 40 39 38 38 38 38 37 37 37 37 37 37
39 41 44 46 46 46 47 47 48 50 51 53 51 52 51 48 46 45 45 44 44 43 43 43 43 43 42 41 41 41 40 40 39 38 38 38 39 39 38 38 38 38 38 38
38 39 41 42 44 45 45 46 46 48 52 53 50 52 50 46 45 45 44 44 43 43 43 43 43 42 42 41 41 40 40 40 39 39 39 39 39 39 39 39 39 39 39 39
36 37 38 40 42 43 43 45 46 47 50 51 51 52 49 46 45 44 44 43 43 43 43 42 43 42 42 41 41 41 41 40 40 40 39 39 39 39 40 40 40 40 40 40
34 36 38 39 40 42 43 44 44 46 48 49 51 51 49 46 44 43 43 43 43 42 42 42 42 42 42 42 42 42 42 42 41 41 40 40 40 40 40 40 41 41 41 42
30 33 36 38 40 41 42 42 43 45 46 47 49 49 46 44 42 42 41 41 42 42 42 42 42 42 42 42 42 42 42 42 42 41 41 40 40 41 41 42 42 42 43 43
30 31 34 36 38 39 41 42 42 43 45 45 47 46 44 43 41 40 40 40 40 40 41 42 43 42 42 42 42 42 42 42 42 41 41 41 41 42 42 42 43 43 43 43
28 30 32 33 35 36 38 40 40 40 41 41 43 44 42 41 40 39 39 39 39 39 40 41 42 42 41 41 41 42 41 41 41 41 41 41 41 42 42 42 42 42 43 43
25 27 30 31 33 35 37 39 40 40 41 41 41 41 40 40 39 38 38 38 39 38 38 39 40 41 41 41 41 41 41 41 41 41 41 41 41 41 41 42 42 42 43 43
26 27 28 29 30 34 36 38 39 39 41 41 41 40 38 38 38 37 37 38 38 38 38 38 39 39 39 40 40 40 40 41 41 41 41 41 41 41 41 41 42 42 42 42
26 27 28 28 28 30 34 36 37 38 38 39 39 39 38 38 37 38 37 37 37 37 38 38 38 38 38 38 39 39 40 40 40 40 41 41 41 41 41 41 41 42 42 42
27 27 28 27 28 29 32 34 36 37 38 38 39 38 37 37 37 37 37 37 37 36 37 37 38 38 38 38 38 38 38 39 39 39 40 40 40 40 41 41 40 40 41 41
26 27 27 28 28 29 31 32 34 35 35 36 37 36 35 36 35 36 36 36 37 36 36 37 37 39 39 39 38 38 38 38 38 38 39 39 39 39 39 39 40 40 40 40
25 26 27 27 27 27 27 29 32 35 34 35 35 35 35 35 35 35 35 35 36 36 36 36 37 37 38 39 39 39 39 39 39 39 39 39 39 39 38 38 38 38 39 39
22 25 26 27 28 26 25 26 29 32 34 33 34 34 35 35 35 34 34 35 35 36 36 36 36 37 37 37 37 38 38 38 39 39 39 39 38 38 38 38 38 39 39 39
18 22 24 26 27 27 25 25 27 28 30 32 33 33 33 34 34 33 32 33 34 34 35 36 36 36 36 37 37 37 37 37 37 38 38 38 39 39 39 39 39 39 39 40
16 19 22 24 25 26 26 25 26 27 28 29 31 33 32 33 33 32 32 32 33 34 35 35 35 35 36 36 37 37 36 36 37 37 38 38 39 39 39 39 39 39 39 39
15 16 18 21 23 24 25 25 26 26 27 29 30 32 32 31 32 32 33 33 34 34 34 34 34 34 35 35 36 36 37 37 37 37 38 37 38 37 37 38 38 38 38 38
13 14 16 18 19 21 23 24 25 26 26 27 28 30 31 31 31 31 32 33 33 33 33 34 34 34 35 36 36 36 36 36 36 37 37 36 35 35 35 35 36 37 37 37
13 14 15 16 17 18 19 21 22 23 24 25 27 28 28 29 30 30 31 31 31 32 32 33 33 34 34 35 36 36 36 35 35 35 34 33 33 33 34 34 35 36 36 36
12 13 14 15 16 17 18 19 19 20 21 22 23 25 26 26 27 29 30 30 31 31 32 32 33 33 33 33 34 34 34 34 33 32 32 32 32 32 33 33 34 35 36 36
12 13 13 13 14 15 17 19 19 19 21 22 22 23 25 26 26 27 28 28 29 30 31 31 31 31 31 32 32 32 32 32 32 31 31 31 31 31 32 32 33 34 35 35
Wind_Direction
231 231 232 234 234 235 235 235 235 234 235 236 236 235 233 233 234 234 234 234 235 236 236 238 239 240 241 242 244 246 247 249 251 253 255 256 258 259 262 264 265 266 268 270
231 231 232 233 233 233 233 233 234 234 235 237 236 235 233 233 233 234 234 235 236 236 237 238 239 240 241 242 244 246 247 249 251 253 255 257 258 260 262 263 264 266 268 270
232 232 231 232 232 233 233 233 233 234 235 236 237 236 234 233 233 233 234 235 236 237 238 239 240 241 242 243 245 246 248 250 252 254 255 257 258 259 261 263 265 267 269 270
231 230 231 232 233 233 233 233 234 235 235 236 236 237 233 233 233 234 235 236 237 238 240 240 241 241 242 243 244 246 248 250 251 253 255 256 257 258 260 262 264 266 268 270
231 231 231 232 232 232 233 233 233 234 236 236 236 239 234 233 233 233 235 237 237 238 239 240 241 242 242 243 244 246 248 249 251 253 254 256 257 258 260 261 263 266 268 270
231 231 232 232 231 231 232 232 233 234 235 236 235 239 236 234 234 234 235 236 237 238 238 239 240 241 242 243 244 246 247 249 251 253 254 256 257 258 260 262 263 265 268 270
230 230 230 230 230 229 229 229 231 233 235 236 235 238 237 235 235 235 235 236 237 237 238 238 239 241 241 243 244 245 247 249 251 252 254 256 257 259 260 262 263 265 267 269
232 229 229 229 229 230 229 230 232 235 237 237 236 237 237 237 236 236 235 235 236 237 237 238 239 240 241 242 244 246 247 248 251 252 254 256 258 259 261 262 263 265 268 269
234 232 229 230 229 229 229 230 232 236 238 240 239 238 238 238 238 238 237 236 235 236 237 237 238 239 240 242 244 246 247 249 250 252 254 256 258 260 261 263 264 266 268 269
236 235 230 231 231 230 230 231 232 233 237 240 240 239 239 238 239 238 237 236 235 235 236 237 238 239 240 241 243 245 247 249 250 252 254 256 258 260 262 263 265 266 268 269
238 236 233 233 233 232 230 228 231 234 237 240 242 240 239 239 239 238 237 236 236 235 236 238 239 240 240 241 243 245 247 249 250 252 254 256 258 260 262 263 265 267 268 269
237 235 233 234 234 234 233 230 230 232 235 238 241 240 238 239 239 238 237 236 235 235 236 237 238 239 240 241 242 244 246 248 250 252 254 256 258 261 263 264 265 267 268 270
238 236 234 233 233 232 232 231 231 232 235 237 239 239 238 238 238 238 236 236 235 235 236 237 238 239 239 240 241 243 245 247 250 252 254 257 260 262 263 265 266 268 269 271
239 237 235 234 235 233 232 231 230 232 234 235 238 238 237 237 237 237 236 235 235 236 236 236 236 237 238 240 241 243 246 248 250 253 255 258 260 262 264 266 267 268 269 271
238 237 236 235 233 233 232 230 229 230 233 235 235 236 236 236 235 235 234 233 233 234 235 235 236 236 237 239 242 244 247 249 251 253 255 258 260 262 264 266 268 269 270 272
238 236 234 234 233 234 233 231 229 229 232 235 234 234 234 235 234 234 234 234 233 233 234 235 236 236 237 239 241 244 247 249 252 253 255 257 260 262 264 266 267 269 272 274
239 236 235 235 235 234 231 230 230 230 232 234 233 233 232 232 232 233 233 235 235 234 234 235 236 236 237 239 241 244 246 249 252 253 256 257 260 262 265 267 269 270 272 274
240 235 235 236 235 235 230 229 231 232 232 233 233 232 231 230 231 231 232 233 235 235 235 235 236 237 238 240 242 245 247 249 252 254 257 258 261 263 265 267 269 271 272 273
241 237 237 237 237 236 231 230 231 232 232 232 231 231 230 229 230 231 232 234 235 235 235 236 238 238 239 241 243 245 248 249 251 254 256 258 262 264 265 266 268 269 271 273
242 237 236 237 239 239 238 236 236 236 234 231 231 230 232 231 232 232 233 234 234 234 235 236 237 240 241 243 245 247 249 250 253 255 257 260 262 264 266 266 267 269 271 274
244 239 237 238 240 239 238 238 238 239 237 234 234 233 233 235 235 234 234 234 235 235 236 237 239 241 243 245 247 248 250 252 254 257 259 261 264 265 265 266 267 269 272 275
249 245 241 241 242 242 239 239 239 241 239 237 237 236 235 236 236 235 236 237 238 239 239 239 241 243 245 247 249 250 251 253 256 258 260 262 264 264 265 266 267 270 272 276
248 246 244 244 243 243 242 241 242 241 240 238 238 237 235 235 235 235 235 236 238 239 240 241 243 245 247 248 250 251 253 255 257 259 261 262 263 263 265 266 268 270 273 277
249 249 246 244 240 238 238 238 239 238 238 237 236 235 233 233 233 234 235 236 238 239 241 243 245 247 249 250 251 252 253 256 259 261 262 263 265 266 267 268 269 271 273 277
248 248 245 242 240 238 235 235 235 233 233 235 236 236 235 235 235 234 236 237 238 239 241 244 246 247 249 249 251 252 254 257 259 260 262 264 266 268 269 270 272 273 275 278
248 245 242 240 242 241 238 236 234 233 233 234 235 237 236 236 237 237 238 238 239 240 242 244 245 247 249 250 250 252 254 256 257 259 261 263 267 269 271 271 273 275 276 278
Height
5608 5615 5621 5630 5636 5642 5648 5653 5659 5666 5670 5674 5679 5686 5692 5696 5701 5707 5712 5718 5723 5728 5732 5736 5740 5743 5747 5750 5753 5756 5759 5761 5763 5765 5767 5768 5770 5771 5772 5773 5773 5773 5773 5773
5599 5605 5614 5619 5624 5630 5635 5641 5648 5655 5660 5664 5669 5675 5682 5687 5692 5698 5704 5709 5714 5719 5723 5728 5732 5736 5739 5743 5745 5748 5751 5753 5756 5758 5760 5761 5762 5764 5765 5765 5766 5766 5766 5766
5589 5598 5603 5608 5613 5619 5625 5632 5639 5644 5649 5653 5658 5664 5672 5678 5683 5689 5695 5700 5705 5710 5715 5719 5723 5727 5731 5735 5738 5740 5743 5745 5748 5750 5752 5754 5755 5756 5757 5758 5758 5758 5758 5758
5579 5587 5592 5597 5603 5609 5616 5623 5628 5633 5637 5641 5647 5652 5663 5669 5675 5681 5687 5692 5697 5702 5706 5710 5714 5719 5723 5726 5729 5731 5734 5737 5739 5742 5744 5746 5747 5748 5749 5750 5750 5750 5750 5750
5571 5577 5582 5587 5595 5600 5606 5612 5617 5622 5626 5631 5637 5642 5653 5660 5667 5673 5679 5683 5688 5692 5697 5701 5705 5709 5713 5717 5720 5723 5726 5728 5731 5733 5736 5737 5739 5740 5741 5741 5742 5742 5742 5742
5562 5567 5572 5579 5585 5590 5595 5601 5606 5610 5614 5620 5629 5633 5642 5652 5659 5665 5669 5674 5678 5683 5687 5692 5696 5700 5704 5708 5711 5714 5717 5720 5723 5725 5727 5729 5730 5731 5732 5733 5733 5734 5734 5733
5554 5559 5563 5569 5575 5580 5585 5591 5596 5599 5603 5610 5620 5623 5633 5644 5649 5655 5660 5664 5669 5673 5678 5682 5687 5691 5695 5699 5702 5706 5709 5712 5714 5716 5718 5720 5721 5722 5723 5724 5724 5725 5725 5724
5546 5552 5557 5562 5567 5572 5578 5583 5589 5593 5597 5604 5609 5614 5626 5634 5639 5644 5650 5655 5659 5664 5669 5673 5677 5682 5686 5690 5693 5697 5700 5703 5705 5707 5709 5711 5712 5713 5714 5715 5715 5715 5715 5715
5539 5545 5550 5555 5560 5565 5569 5574 5581 5585 5588 5594 5599 5607 5617 5624 5630 5635 5641 5645 5650 5655 5659 5664 5668 5672 5677 5681 5684 5688 5691 5693 5696 5698 5700 5701 5703 5704 5705 5705 5706 5706 5705 5705
5533 5538 5543 5547 5552 5556 5562 5567 5572 5575 5579 5584 5591 5599 5608 5615 5621 5626 5631 5636 5641 5646 5650 5654 5659 5663 5667 5671 5675 5678 5681 5684 5686 5688 5690 5692 5693 5694 5695 5695 5696 5696 5695 5695
5527 5531 5536 5540 5544 5548 5554 5559 5563 5568 5572 5578 5583 5594 5600 5606 5611 5617 5622 5627 5631 5636 5641 5645 5649 5654 5658 5662 5665 5668 5671 5674 5677 5679 5681 5682 5683 5684 5685 5685 5685 5685 5684 5684
5521 5525 5528 5533 5537 5541 5546 5551 5556 5561 5565 5570 5576 5587 5591 5597 5602 5607 5612 5617 5622 5627 5631 5636 5640 5644 5648 5652 5656 5659 5662 5665 5667 5669 5671 5672 5673 5674 5674 5674 5674 5674 5674 5673
5516 5519 5522 5526 5532 5534 5538 5543 5548 5553 5557 5562 5567 5578 5583 5588 5593 5598 5603 5608 5613 5618 5622 5627 5631 5635 5639 5643 5646 5649 5652 5655 5657 5659 5661 5662 5663 5664 5664 5664 5664 5663 5663 5662
5509 5512 5516 5520 5523 5526 5530 5535 5540 5545 5549 5554 5560 5568 5574 5579 5584 5589 5594 5599 5604 5609 5614 5618 5622 5626 5630 5633 5637 5640 5643 5645 5647 5649 5651 5652 5653 5654 5654 5654 5653 5653 5652 5651
5503 5507 5509 5513 5516 5519 5523 5528 5533 5537 5542 5547 5554 5559 5566 5570 5575 5580 5585 5590 5595 5600 5604 5609 5613 5617 5621 5624 5627 5630 5633 5635 5638 5639 5641 5642 5643 5643 5644 5643 5643 5642 5641 5641
5498 5501 5503 5507 5510 5513 5516 5521 5525 5530 5535 5539 5545 5551 5557 5561 5566 5571 5576 5581 5586 5591 5595 5600 5604 5608 5612 5615 5618 5621 5623 5626 5628 5629 5631 5632 5633 5633 5633 5633 5633 5632 5632 5631
5493 5496 5498 5501 5504 5506 5510 5515 5519 5523 5528 5532 5537 5545 5549 5553 5558 5563 5568 5573 5577 5582 5587 5591 5595 5599 5602 5606 5609 5612 5614 5616 5618 5620 5622 5623 5623 5624 5624 5623 5623 5623 5622 5621
5488 5490 5493 5495 5499 5501 5508 5509 5512 5516 5521 5526 5530 5536 5541 5546 5550 5555 5560 5564 5569 5573 5578 5582 5586 5590 5593 5596 5599 5602 5605 5607 5609 5611 5612 5613 5614 5614 5614 5614 5614 5614 5613 5612
5483 5485 5488 5491 5493 5496 5501 5503 5506 5510 5515 5519 5523 5528 5533 5538 5542 5548 5552 5556 5560 5564 5569 5573 5577 5581 5584 5587 5590 5593 5596 5598 5600 5602 5603 5604 5604 5605 5605 5605 5605 5605 5604 5603
5479 5480 5484 5486 5488 5491 5497 5499 5501 5505 5509 5513 5517 5521 5526 5530 5535 5541 5544 5548 5552 5556 5560 5564 5568 5572 5575 5578 5581 5584 5587 5589 5591 5592 5593 5594 5595 5595 5596 5596 5596 5595 5595 5594
5475 5476 5478 5481 5483 5486 5491 5493 5496 5501 5505 5508 5511 5515 5520 5524 5529 5533 5536 5540 5544 5548 5552 5556 5560 5563 5566 5569 5572 5575 5577 5579 5581 5583 5584 5585 5585 5586 5586 5586 5586 5586 5586 5585
5471 5472 5474 5476 5479 5485 5485 5488 5492 5494 5497 5501 5505 5508 5513 5517 5521 5525 5529 5533 5537 5540 5544 5548 5551 5554 5557 5560 5563 5566 5568 5570 5572 5573 5574 5575 5575 5576 5576 5577 5577 5577 5577 5576
5468 5470 5471 5474 5477 5478 5480 5482 5485 5488 5491 5495 5499 5502 5506 5510 5514 5517 5521 5525 5529 5532 5536 5539 5543 5546 5549 5551 5554 5556 5559 5561 5562 5564 5565 5565 5566 5566 5567 5568 5568 5568 5567 5567
5465 5466 5468 5470 5472 5473 5475 5477 5480 5483 5486 5489 5492 5496 5499 5503 5507 5511 5514 5518 5521 5525 5528 5531 5535 5537 5540 5543 5545 5548 5550 5552 5553 5555 5556 5556 5557 5558 5558 5559 5559 5559 5558 5557
5462 5463 5464 5466 5468 5469 5471 5473 5475 5478 5481 5484 5486 5490 5493 5497 5500 5504 5507 5510 5514 5517 5520 5523 5526 5529 5532 5534 5537 5539 5541 5543 5545 5546 5547 5548 5549 5549 5549 5550 5550 5549 5549 5548
5459 5460 5461 5463 5464 5465 5467 5469 5471 5473 5476 5479 5482 5485 5487 5490 5494 5497 5500 5503 5506 5509 5512 5515 5518 5521 5523 5526 5528 5531 5533 5535 5536 5538 5539 5540 5540 5541 5541 5541 5541 5540 5540 5539